Tracking 19644 objects as of 25-Apr-2019
HD Live streaming from Space Station
objects crossing your sky now

THORAD DELTA 1 DEB

Track THORAD DELTA 1 DEB now!
10-day predictions


NORAD ID: 42606
Int'l Code: 1974-089FX
Perigee: 1,238.2 km
Apogee: 1,527.2 km
Inclination: 102.1 °
Period: 113.2 minutes
Semi major axis: 7753 km
RCS: Unknown
Launch date: November 15, 1974
Source: United States (US)
Launch site: AIR FORCE WESTERN TEST RANGE (AFWTR)

Note: This is SATELLITE DEBRIS
aabbcc
Your satellite tracking list
Your tracking list is empty




NASA's NSSDC Master Catalog

Two Line Element Set (TLE):
1 42606U 74089FX  19064.07845003 -.00000102 +00000-0 -24599-3 0  9990
2 42606 102.1418 145.5467 0186325 112.8078 005.7438 12.71563798234130
Source of the keplerian elements: AFSPC